STARLINK-1664, 46553

Orbit data source: Space-Track

STARLINK-1664, 46553 is a payload satellite owned by SpaceX/Seattle (US) in LEO that was launched on Tue, 06 Oct 2020 UTC via an FALCON 9 launch vehicle from the Air Force Eastern Test Range (AFETR). Payload-class satellites include a variety of spacecraft equipped with specific instruments for various scientific and technological missions. These include communications satellites like Starlink; space stations such as the ISS; scientific satellites like the Hubble; Earth observation satellites from companies like Planet Labs, Umbra, and HawkEye 360; GPS; miniature CubeSats for education and research; and military/defense satellites.

Loading next visibility...
Identifier
46553, 2020-070X
Orbit
LEO
Country
Flag of USUS
Related business
Manufacturer
SpaceX/Seattle
Mission
Operational Commercial Communications
Bus & Motor
STARLINK, Unknown motor
Mass
260 kg wet, ~248 kg dry
Launch date (UTC)
2020-10-06 (5 years ago)
Launch vehicle
FALCON 9
Launch site
Air Force Eastern Test Range (AFETR)
Object type
Payload
Rocket body
Debris
Shape & HBR
Box + 1 Pan, 10.1 m
Radar Cross Section
13.562 m², Large (>1 m²)

Expand to show TLE details & history
Last TLE update: 18 hours ago

TLE from 18 hours ago
0 STARLINK-1664
1 46553U 20070X   25340.35117197  .00005802  00000-0  40827-3 0  9999
2 46553  53.0544 205.6415 0001406  94.9127 265.2023 15.06380243285852
Epoch: 2025-12-06T08:25Z
TLE epoch observation values (Epoch: 2025-12-06T08:25:41.258Z)
Latitude
0.00003°
Longitude
3.83946°
Altitude
548.233 km
Speed
7.589 km/s
True Right ascension
13h 42m 33s
True Declination
0° 00' 00"
Sunlit
Object was in daylight at epoch
Visualization orbit readout
Latitude
Unknown
Longitude
Unknown
Altitude
Unknown
Speed
Unknown
Apparent Right ascension
Unknown
Apparent Declination
Unknown
Sunlit
N/A
Visualization observer readout
Local Sidereal Time
00:57:48
Azimuth
Unknown
Elevation
Unknown
Doppler factor
Unknown
Orbital elements
Apogee altitude
548.517 km
Perigee altitude
546.569 km
Semi-major axis
6,925.68 km
Eccentricity
0.00014
Inclination
53.0544°
RAAN
205.6415°
Arg. of periapsis
94.9127°
True anomaly
265.18625°
Mean anomaly
265.2023°
Eccentric anomaly
265.19427°
Mean motion
3.76573 °/min
Orbital period
95.6 mins
BSTAR
0.00040827
Loading maneuver chart data...
Computing Atmospheric mass density...

Documentation

Showing up to 5 results
|